TimeEST,TemperatureF,Dew PointF,Humidity,Sea Level PressureIn,VisibilityMPH,Wind Direction,Wind SpeedMPH,Gust SpeedMPH,PrecipitationIn,Events,Conditions,WindDirDegrees,DateUTC
12:53 AM,5.0,-7.1,58,29.97,10.0,WNW,4.6,-,N/A,,Clear,300,2013-02-05 05:53:00
1:53 AM,3.9,-7.1,60,29.99,10.0,WNW,5.8,-,N/A,,Clear,290,2013-02-05 06:53:00
2:53 AM,3.0,-8.0,60,29.99,10.0,NW,5.8,-,N/A,,Clear,320,2013-02-05 07:53:00
3:53 AM,-0.0,-8.0,69,29.99,10.0,NNW,4.6,-,N/A,,Clear,340,2013-02-05 08:53:00
4:53 AM,-0.0,-8.0,69,30.01,10.0,NNW,3.5,-,N/A,,Clear,340,2013-02-05 09:53:00
5:53 AM,-0.0,-8.0,69,30.01,10.0,NW,3.5,-,N/A,,Clear,320,2013-02-05 10:53:00
6:53 AM,-0.0,-9.0,66,30.03,10.0,NNW,3.5,-,N/A,,Clear,340,2013-02-05 11:53:00
8:53 AM,6.1,-4.0,63,30.06,10.0,Calm,Calm,-,N/A,,Clear,0,2013-02-05 13:53:00
9:53 AM,9.0,-2.9,59,30.06,10.0,SE,4.6,-,N/A,,Clear,130,2013-02-05 14:53:00
10:53 AM,12.0,-0.9,56,30.06,10.0,ESE,4.6,-,N/A,,Clear,120,2013-02-05 15:53:00
11:53 AM,10.9,-0.9,59,30.03,10.0,SE,6.9,-,0.00,,Clear,130,2013-02-05 16:53:00
12:53 PM,14.0,1.0,56,30.01,10.0,ESE,4.6,-,0.00,,Clear,120,2013-02-05 17:53:00
1:53 PM,16.0,1.0,52,29.99,10.0,SE,6.9,-,0.00,,Clear,140,2013-02-05 18:53:00
2:53 PM,17.1,1.9,52,29.97,10.0,SE,6.9,-,N/A,,Clear,140,2013-02-05 19:53:00
3:53 PM,18.0,-0.0,45,29.97,10.0,Calm,Calm,-,N/A,,Partly Cloudy,0,2013-02-05 20:53:00
4:53 PM,17.1,1.9,52,29.96,10.0,NNE,3.5,-,N/A,,Scattered Clouds,30,2013-02-05 21:53:00
5:53 PM,15.1,3.0,59,29.95,10.0,North,4.6,-,N/A,,Partly Cloudy,360,2013-02-05 22:53:00
6:53 PM,16.0,1.9,54,29.93,10.0,NW,4.6,-,N/A,,Scattered Clouds,320,2013-02-05 23:53:00
7:53 PM,14.0,-0.0,54,29.93,10.0,WNW,4.6,-,N/A,,Clear,290,2013-02-06 00:53:00
8:53 PM,14.0,1.0,56,29.94,10.0,WNW,4.6,-,N/A,,Scattered Clouds,290,2013-02-06 01:53:00
9:53 PM,14.0,1.9,59,29.93,10.0,Calm,Calm,-,N/A,,Overcast,0,2013-02-06 02:53:00
10:53 PM,14.0,3.9,64,29.91,10.0,Calm,Calm,-,N/A,,Overcast,0,2013-02-06 03:53:00
11:53 PM,14.0,3.9,64,29.90,10.0,Calm,Calm,-,N/A,,Overcast,0,2013-02-06 04:53:00